AO-07 1 07530U 74089B 23208.23566209 -.00000023 00000-0 14551-3 0 9996 2 07530 101.9490 195.1851 0012212 349.2312 24.0257 12.53665607228196 UO-11 1 14781U 84021B 23208.35258006 .00002167 00000-0 25964-3 0 9995 2 14781 97.6593 183.7350 0009757 73.7158 286.5130 14.85046550100103 AO-16 1 20439U 90005D 23208.47378965 .00000228 00000-0 10001-3 0 9993 2 20439 98.8848 199.7403 0011927 86.2205 66.6316 14.33131243750679 LO-19 1 20442U 90005G 23208.38148025 .00000224 00000-0 98192-4 0 9993 2 20442 98.8462 185.7605 0012780 63.5855 296.6639 14.33285102751107 HUBBLE 1 20580U 90037B 23208.55360378 .00005034 00000-0 26302-3 0 9994 2 20580 28.4703 359.3492 0002881 96.2531 329.9925 15.13585479627586 MET-2/21 1 22782U 93055A 23208.33963891 .00000067 00000-0 46843-4 0 9992 2 22782 82.5475 52.8913 0021053 292.8506 240.6459 13.83892154510005 AO-27 1 22825U 93061C 23208.36170163 .00000147 00000-0 74155-4 0 9998 2 22825 98.8384 251.8942 0007582 316.3472 43.7109 14.30325320556036 IO-26 1 22826U 93061D 23208.07522384 .00000166 00000-0 80935-4 0 9997 2 22826 98.8330 251.4657 0007971 301.2241 58.8160 14.30688287556269 FO-29 1 24278U 96046B 23208.33943749 -.00000014 00000-0 24846-4 0 9999 2 24278 98.5309 181.4270 0349405 312.8866 44.3418 13.53150619330364 NOAA-15 1 25338U 98030A 23208.70298344 .00000253 00000-0 12342-3 0 9998 2 25338 98.6039 237.0632 0010175 189.0496 171.0502 14.26359957311037 GO-32 1 25397U 98043D 23208.34451460 .00000114 00000-0 69553-4 0 9990 2 25397 98.8709 166.1520 0001995 51.7983 308.3375 14.23891493301048 ISS 1 25544U 98067A 23208.94531115 .00254513 00000-0 43476-2 0 9990 2 25544 51.6387 126.5822 0001640 146.7888 308.1398 15.49849171408116 NO-44 1 26931U 01043C 23208.11074975 .00000214 00000-0 11276-3 0 9995 2 26931 67.0512 93.7394 0007910 265.9735 94.0462 14.30950191139295 SO-50 1 27607U 02058C 23208.23855670 .00001285 00000-0 19378-3 0 9995 2 27607 64.5544 142.1298 0065153 216.4280 143.2382 14.77429405108142 CO-55 1 27844U 03031E 23208.47460408 .00000418 00000-0 20544-3 0 9991 2 27844 98.6778 215.1411 0010062 16.4972 343.6532 14.22825786 41461 CO-57 1 27848U 03031J 23208.28860586 .00000370 00000-0 18611-3 0 9994 2 27848 98.6815 215.3583 0010282 31.3529 328.8260 14.22330509 41206 RS-22 1 27939U 03042A 23208.74764948 .00001362 00000-0 24336-3 0 9996 2 27939 98.2482 356.0256 0012655 14.5002 98.2690 14.68511997 60497 NOAA-18 1 28654U 05018A 23208.71263761 .00000223 00000-0 14357-3 0 9997 2 28654 98.9084 282.9052 0013168 264.4359 95.5312 14.12976454937293 CO-58 1 28895U 05043F 23208.62126157 .00001725 00000-0 32458-3 0 9999 2 28895 98.1585 340.3856 0015118 307.5131 52.4697 14.65808874946738 CO-65 1 32785U 08021C 23208.75960661 .00004061 00000-0 39956-3 0 9997 2 32785 97.7075 173.8586 0011241 336.4373 23.6330 14.92604943826946 AAUSAT2 1 32788U 08021F 23208.39374123 .00010894 00000-0 77697-3 0 9997 2 32788 97.5621 186.9421 0006804 197.6938 162.4052 15.04708892829151 DO-64 1 32789U 08021G 23208.27718909 .00082679 00000-0 19209-2 0 9993 2 32789 97.3001 229.6323 0002323 16.5958 343.5365 15.42041083833553 CO-66 1 32791U 08021J 23208.37854698 .00006472 00000-0 56382-3 0 9994 2 32791 97.6566 178.7876 0010180 277.4843 82.5222 14.97193510827673 RS-30 1 32953U 08025A 23208.68677658 .00000013 00000-0 17771-4 0 9996 2 32953 82.5034 291.9069 0020739 97.2130 263.1309 12.43127114688681 PRISM 1 33493U 09002B 23208.29442188 .00011167 00000-0 74120-3 0 9999 2 33493 98.2450 225.6461 0013860 270.0984 89.8654 15.07350668789786 NOAA-19 1 33591U 09005A 23208.76228618 .00000218 00000-0 14191-3 0 9990 2 33591 99.0970 255.3324 0014761 126.7848 233.4681 14.12793267745674 SRMSAT 1 37841U 11058D 23208.61421164 .00000465 00000-0 11016-3 0 9995 2 37841 19.9736 325.5997 0011898 115.2887 5.0547 14.10918732608527 HRBE 1 37855U 11061F 23208.41465727 .00023500 00000-0 69213-3 0 9992 2 37855 101.7069 192.8477 0112243 276.3804 82.4649 15.29012742642700 RS-40 1 38735U 12041C 23208.57282606 .00000024 00000-0 10181-3 0 9995 2 38735 82.4774 12.9032 0017072 205.9739 154.0485 12.42594873498732 ZACUBE-1 1 39417U 13066B 23208.52258596 .00003466 00000-0 39904-3 0 9994 2 39417 97.6870 168.7878 0055381 153.1732 207.2367 14.85252483523180 Delfi-N3xt 1 39428U 13066N 23208.66741995 .00006936 00000-0 98522-3 0 9997 2 39428 97.8312 132.0717 0111642 59.7510 301.4694 14.72984505518276 GOMX-1 1 39430U 13066Q 23208.63787279 .00001519 00000-0 26993-3 0 9997 2 39430 97.7752 97.4193 0144329 204.8875 154.5321 14.61994357515447 LO-74 1 39440U 13066AA 23207.73115914 .00003103 00000-0 40168-3 0 9990 2 39440 97.7730 155.2029 0073213 258.4007 100.8980 14.79717926520007 AO-73 1 39444U 13066AE 23208.37126058 .00004890 00000-0 53736-3 0 9995 2 39444 97.6732 171.2236 0054029 138.8422 221.6889 14.87014694521615 SPROUT 1 39770U 14029E 23208.63612724 .00022667 00000-0 16443-2 0 9991 2 39770 97.9904 337.1313 0006927 173.5362 186.5953 15.03905638498231 DTUSAT-2 1 40030U 14033W 23208.28589968 .00004285 00000-0 41291-3 0 9997 2 40030 97.9675 149.3489 0011471 151.1700 209.0156 14.93429138493989 EO-80 1 40032U 14033Y 23208.79751076 .00005005 00000-0 48111-3 0 9995 2 40032 97.9678 149.8847 0011571 149.3198 210.8700 14.93443944494558 HODOYOSHI-1 1 40299U 14070B 23208.74254078 .00012114 00000-0 36253-3 0 9999 2 40299 97.1917 270.3705 0011823 129.4112 230.8180 15.34614334485024 FIREBIRD FU3 1 40377U 15003B 23207.63327366 .01398946 12571-2 17837-2 0 9996 2 40377 99.0602 179.5562 0016256 100.3570 259.9540 16.07373218470890 FIREBIRD FU4 1 40378U 15003C 23208.52152941 .01348262 11702-2 16287-2 0 9990 2 40378 99.0707 181.0720 0014260 98.1537 262.1359 16.08275220471059 GRIFEX 1 40379U 15003D 23208.58869501 .00041221 00000-0 81214-3 0 9998 2 40379 99.0769 155.1865 0078664 130.7795 230.0309 15.43731101469618 XW-2C 1 40906U 15049H 23208.72104722 .00013592 00000-0 50729-3 0 9994 2 40906 97.4935 216.0167 0011868 30.4081 329.7844 15.27453558434587 XW-2D 1 40907U 15049J 23208.75088745 .00016318 00000-0 56961-3 0 9997 2 40907 97.4915 216.6954 0010547 25.0575 335.1175 15.29622838434687 LILACSAT-2 1 40908U 15049K 23208.71083416 .00006501 00000-0 30229-3 0 9996 2 40908 97.5253 211.6642 0015211 54.6854 305.5800 15.20212281433957 XW-2E 1 40909U 15049L 23208.67595160 .00032594 00000-0 78938-3 0 9996 2 40909 97.4513 223.3086 0006128 353.2867 6.8296 15.41014603435376 XW-2F 1 40910U 15049M 23208.69111711 .00031991 00000-0 79245-3 0 9998 2 40910 97.4607 222.5715 0006978 355.1529 4.9648 15.40327587435110 XW-2B 1 40911U 15049N 23208.68765439 .00016180 00000-0 56907-3 0 9993 2 40911 97.4893 217.0429 0010609 26.8216 333.3570 15.29377938434552 DCBB 1 40912U 15049P 23208.66926905 .00043041 00000-0 83917-3 0 9996 2 40912 97.4149 227.3438 0004885 289.9565 70.1158 15.47392130435863 IO-86 1 40931U 15052B 23208.66651873 .00001257 00000-0 84318-4 0 9990 2 40931 5.9988 157.5372 0012692 151.1827 208.9002 14.77289897423342 ATHENOXAT-1 1 41168U 15077C 23208.77364793 .00639074 00000-0 24921-2 0 9990 2 41168 14.9833 257.6853 0003914 130.8424 229.2247 15.84133622422703 ChubuSat-2 1 41338U 16012B 23208.62164916 .00004414 00000-0 30271-3 0 9998 2 41338 31.0037 319.2431 0012045 220.9472 139.0260 15.04312000408476 ChubuSat-3 1 41339U 16012C 23208.68699279 .00004070 00000-0 27999-3 0 9991 2 41339 31.0102 316.0197 0011969 228.8678 131.0926 15.04141309408476 Horyu-4 1 41340U 16012D 23208.42930813 .00007814 00000-0 48274-3 0 9995 2 41340 31.0044 284.3808 0011060 285.8130 74.1288 15.08479050408803 e-st@r-II 1 41459U 16025D 23208.66376994 .00027291 00000-0 74169-3 0 9993 2 41459 98.1832 54.1416 0100282 318.3487 41.0145 15.32515965399091 AAUSAT4 1 41460U 16025E 23208.34751372 .00223767 00000-0 17916-2 0 9999 2 41460 98.1514 68.4715 0041575 260.8617 98.7938 15.69232149400042 LO-87 1 41557U 16033B 23208.68823072 .00087732 00000-0 86095-3 0 9994 2 41557 97.3883 318.3738 0004338 326.9805 33.1184 15.65774315399955 NuSat2 1 41558U 16033C 23208.68329895 .00118569 00000-0 93309-3 0 9998 2 41558 97.4169 326.9214 0004621 304.7708 55.3120 15.71098727400311 Lapan A3 1 41603U 16040E 23208.74015311 .00002886 00000-0 12650-3 0 9993 2 41603 97.1647 232.4314 0013085 165.3082 194.8538 15.22677481393669 Pratham 1 41783U 16059A 23208.34756264 .00000896 00000-0 17846-3 0 9998 2 41783 97.8668 237.6713 0032284 335.8086 24.1600 14.64037846364852 TY-1 1 41844U 16066D 23208.76430358 .00071304 00000-0 91116-3 0 9997 2 41844 97.3641 229.3502 0004988 235.7749 124.3035 15.59002955373992 CAS-2T 1 41847U 16066G 23208.26980659 .00002116 00000-0 31947-3 0 9990 2 41847 98.5020 276.6274 0360296 77.2553 286.8646 14.39870378352571 CAS-4B 1 42759U 17034B 23208.59596682 .00008660 00000-0 42726-3 0 9991 2 42759 43.0149 250.9366 0011013 355.8490 4.2266 15.18108074337773 CAS-4A 1 42761U 17034D 23208.61203687 .00007863 00000-0 38900-3 0 9990 2 42761 43.0140 249.3741 0011763 357.5868 2.4922 15.18103841337783 NIUSat 1 42766U 17036B 23208.07998946 .00035402 00000-0 84057-3 0 9990 2 42766 97.1544 238.5388 0007251 324.6936 35.3830 15.41586036338759 Aalto 1 1 42775U 17036L 23208.51982989 .00018585 00000-0 51415-3 0 9994 2 42775 97.1501 237.4319 0007585 328.3409 31.7379 15.37025820338718 URSA MAIOR 1 42776U 17036M 23208.52859610 .00022231 00000-0 57192-3 0 9991 2 42776 97.1509 238.9059 0006907 322.8410 37.2358 15.39239808338793 Max Valier Sat 1 42778U 17036P 23207.67729621 .00030009 00000-0 73207-3 0 9993 2 42778 97.1517 241.6320 0005456 329.2892 30.8035 15.40812134338803 Pegasus 1 42784U 17036V 23207.87829015 .00055580 00000-0 96047-3 0 9998 2 42784 97.1442 244.8953 0003502 303.1463 56.9453 15.50794652339123 SUCHAI 1 1 42788U 17036Z 23208.04113078 .00131317 00000-0 13213-2 0 9993 2 42788 97.1391 249.5239 0002799 245.1979 114.8990 15.65006454339518 SKCUBE 1 42789U 17036AA 23208.34908841 .00076831 00000-0 10560-2 0 9998 2 42789 97.1402 247.8478 0003170 277.7257 82.3639 15.57038467339353 VENTA 1 1 42791U 17036AC 23208.08307822 .00058207 00000-0 99504-3 0 9997 2 42791 97.1451 246.3123 0002773 300.3856 59.7122 15.51091647339210 Robusta 1B 1 42792U 17036AD 23208.07627356 .00108862 00000-0 12349-2 0 9998 2 42792 97.1377 249.0626 0002432 244.6254 115.4753 15.62007652339428 D-SAT 1 42794U 17036AF 23208.20497113 .00003957 00000-0 31240-3 0 9992 2 42794 97.4672 198.4145 0116356 166.2119 194.2328 14.96010043331917 TechnoSat 1 42829U 17042E 23208.58345575 .00002256 00000-0 21699-3 0 9991 2 42829 97.3886 43.6128 0014951 89.9819 270.3116 14.93838578328522 AO-91 1 43017U 17073E 23207.90230732 .00007539 00000-0 52547-3 0 9993 2 43017 97.6251 90.6782 0229739 298.3008 59.5200 14.86749639307087 PICSAT 1 43132U 18004X 23208.21153980 .00115121 00000-0 11165-2 0 9997 2 43132 97.3246 292.8453 0002784 272.8491 87.2450 15.65985563308799 AO-92 1 43137U 18004AC 23208.15972378 .00046345 00000-0 85222-3 0 9992 2 43137 97.3266 287.8656 0003876 0.2343 359.8909 15.49067494308497 TianYi 2 1 43155U 18008A 23208.76649410 .00020137 00000-0 75678-3 0 9996 2 43155 97.2958 260.3459 0013812 159.8946 200.2841 15.27109403304844 Zhou Enlai 1 43156U 18008B 23208.69325613 .00022711 00000-0 83429-3 0 9998 2 43156 97.3007 260.4550 0011437 159.7383 200.4313 15.27866505304769 TianYi 6 1 43158U 18008D 23208.39198694 .00017819 00000-0 73092-3 0 9992 2 43158 97.3017 256.9010 0011458 164.0037 196.1564 15.24239756304545 S-Net D 1 43186U 18014G 23208.12533825 .00004252 00000-0 33903-3 0 9994 2 43186 97.6218 111.1681 0017048 42.4484 317.8055 15.00736406299542 S-Net B 1 43187U 18014H 23208.12662890 .00004243 00000-0 33834-3 0 9993 2 43187 97.6218 111.0949 0017573 39.9448 320.3065 15.00730922299540 S-Net A 1 43188U 18014J 23208.12667962 .00004208 00000-0 33557-3 0 9992 2 43188 97.6222 111.1857 0017521 40.1446 320.1069 15.00733333299541 S-Net C 1 43189U 18014K 23208.12918274 .00004276 00000-0 34090-3 0 9996 2 43189 97.6222 111.0733 0018402 35.2159 325.0277 15.00725637298091 Shaonian Xing 1 43199U 18015H 23208.16665857 .01743539 27290-2 14300-2 0 9994 2 43199 97.5377 12.2877 0011128 277.0305 82.9715 16.14645914306170 CubeBel-1 1 43666U 18083E 23208.76517647 .00035671 00000-0 86932-3 0 9996 2 43666 97.3779 240.6716 0006739 345.9993 14.1066 15.40801280263448 Changshagaoxin 1 43669U 18083H 23208.76870624 .00027049 00000-0 75382-3 0 9993 2 43669 97.3774 235.0703 0005217 354.1827 5.9355 15.36740794263174 Ten-Koh 1 43677U 18084G 23208.62481627 .00002591 00000-0 25293-3 0 9990 2 43677 98.0184 349.2711 0015407 20.3154 339.8675 14.93251041258093 PO-101 1 43678U 18084H 23208.65554721 .00001389 00000-0 13736-3 0 9993 2 43678 98.0280 353.4547 0010212 34.8317 325.3568 14.93566758258304 QO-100 1 43700U 18090A 23208.02962983 .00000159 00000-0 00000-0 0 9991 2 43700 0.0316 259.7467 0002243 255.3097 185.8743 1.00272843 17087 Reaktor Hello World 1 43743U 18096AA 23208.18745662 .00090087 00000-0 93133-3 0 9995 2 43743 97.3150 296.4943 0005977 33.8168 326.3472 15.64439024260410 MinXSS-2 1 43758U 18099A 23208.56603202 .00006517 00000-0 49811-3 0 9998 2 43758 97.6038 271.8663 0017771 356.2977 3.8113 15.02151051253802 AO-95 1 43770U 18099N 23208.58276389 .00006245 00000-0 50207-3 0 9995 2 43770 97.5698 269.0251 0014548 17.4029 342.7691 15.00268740253664 RANGE-B 1 43772U 18099Q 23207.67333952 .00008436 00000-0 64622-3 0 9996 2 43772 97.5669 271.0313 0005929 316.0112 44.0641 15.02084736253592 RANGE-A 1 43773U 18099R 23208.12981241 .00003831 00000-0 32219-3 0 9999 2 43773 97.5634 266.5510 0012281 353.4411 6.6650 14.98793804253545 MOVE-II 1 43780U 18099Y 23208.41805409 .00010719 00000-0 76784-3 0 9998 2 43780 97.5686 271.6090 0008891 27.3126 332.8566 15.04536102253782 SNUSat 2 1 43782U 18099AA 23208.41697045 .00004370 00000-0 35439-3 0 9993 2 43782 97.5694 269.3950 0012129 327.9384 32.1101 15.00124594253662 SnugLite 1 43784U 18099AC 23208.41811398 .00005436 00000-0 43327-3 0 9993 2 43784 97.5605 269.0722 0006037 346.6584 13.4479 15.00724217253704 ITASat 1 1 43786U 18099AE 23208.59442394 .00005233 00000-0 42579-3 0 9993 2 43786 97.5765 270.0728 0014324 2.8599 357.2704 14.99890201253700 EAGLET 1 1 43790U 18099AJ 23208.44786780 .00004092 00000-0 33874-3 0 9992 2 43790 97.5719 270.3702 0010976 359.8746 0.2473 14.99372506253416 ESEO 1 43792U 18099AL 23208.44663662 .00002718 00000-0 23585-3 0 9998 2 43792 97.5667 268.7217 0012110 358.1192 1.9983 14.97811542253411 CSIM 1 43793U 18099AM 23207.90324826 .00011663 00000-0 82441-3 0 9990 2 43793 97.5751 272.4796 0014863 359.5258 0.5951 15.04955256253550 Astrocast 0.1 1 43798U 18099AS 23208.41919228 .00008955 00000-0 66284-3 0 9995 2 43798 97.5823 272.2820 0010905 334.1852 25.8828 15.03334856253811 JO-97 1 43803U 18099AX 23208.44448493 .00006568 00000-0 51344-3 0 9995 2 43803 97.5732 270.0002 0013733 330.0973 29.9466 15.01336466253737 Suomi 100 1 43804U 18099AY 23208.45073901 .00006237 00000-0 49161-3 0 9992 2 43804 97.5717 269.7723 0019326 342.0791 17.9750 15.00966178253732 Al Farabi 2 1 43805U 18099AZ 23208.41165739 .00007738 00000-0 58128-3 0 9990 2 43805 97.5568 270.8315 0011714 331.3654 28.6927 15.02813677253797 CHOMPTT 1 43855U 18104G 23208.55334901 .00028485 00000-0 65513-3 0 9994 2 43855 85.0300 138.6575 0013353 150.0602 210.1417 15.42415261256793 ISAT 1 43879U 18111D 23207.98289056 .00008089 00000-0 60468-3 0 9996 2 43879 97.6412 111.8921 0016203 36.9090 323.3247 15.02939329250312 UWE-4 1 43880U 18111E 23208.18368357 .00006790 00000-0 51085-3 0 9995 2 43880 97.6312 112.7525 0020421 43.2755 317.0070 15.02692577250370 Sparrow 1 43881U 18111F 23207.98035365 .00007937 00000-0 58833-3 0 9995 2 43881 97.6454 113.2833 0013380 74.3644 285.9057 15.03296614250364 Lume 1 1 43908U 18111AJ 23208.42030948 .00041505 00000-0 75356-3 0 9995 2 43908 97.1340 91.1558 0013512 61.4480 298.8130 15.49360846255610 FO-99 1 43937U 19003F 23208.11835952 .00081862 00000-0 10790-2 0 9992 2 43937 97.0827 234.9635 0013696 128.0076 232.2420 15.58040652252259 AstroCast 0.2 1 44083U 19018F 23208.12850617 .00082558 00000-0 12332-2 0 9994 2 44083 97.2630 268.3720 0005574 113.9587 246.2251 15.54738663240614 AISTechSat 3 1 44103U 19018AB 23208.70584700 .00030401 00000-0 68115-3 0 9999 2 44103 97.2502 266.9346 0010108 125.6965 234.5225 15.43331463240753 AISat 1 1 44104U 19018AC 23208.22468618 .00027467 00000-0 49930-3 0 9998 2 44104 97.3738 300.3444 0040031 112.1901 248.3605 15.48596863241913 Prox-1 1 44339U 19036A 23208.15819252 .00008267 00000-0 16462-2 0 9994 2 44339 23.9992 150.3292 0009247 346.9117 13.1135 14.59914228217441 Move-IIb 1 44398U 19038N 23208.18347940 .00072259 00000-0 15168-2 0 9998 2 44398 97.6600 193.0321 0016234 138.6467 221.6013 15.44971775224832 SONATE 1 44400U 19038Q 23208.21218061 .00011330 00000-0 49491-3 0 9997 2 44400 97.6858 186.7091 0020963 166.8733 193.3052 15.22085428224326 BeeSat 9 1 44412U 19038AC 23208.40889191 .00025205 00000-0 81654-3 0 9992 2 44412 97.6749 190.4280 0016602 154.4580 205.7485 15.31870639224311 JAISAT-1 1 44419U 19038F 23208.41611986 .00025102 00000-0 80618-3 0 9990 2 44419 97.6747 191.5349 0015948 150.8218 209.3918 15.32160028224691 Taurus 1 1 44530U 19059C 23208.78128372 .00004449 00000-0 11486-2 0 9996 2 44530 98.5572 317.2228 0011617 331.2803 28.7749 14.50441981204522 Duchifat 3 1 44854U 19089C 23208.70124642 .00008390 00000-0 55519-3 0 9991 2 44854 36.9603 209.0402 0009584 281.8832 78.0837 15.06893010198946 OPS-SAT 1 44878U 19092F 23208.46531292 .00026413 00000-0 74183-3 0 9991 2 44878 97.4750 37.7879 0007934 357.9626 2.1584 15.36486464199979 TO-108 1 44881U 19093C 23208.65632427 .00001048 00000-0 13651-3 0 9999 2 44881 97.8606 286.4195 0013544 309.7601 50.2419 14.82628349194799 FloripaSat 1 1 44885U 19093G 23208.75054120 .00003770 00000-0 43568-3 0 9996 2 44885 97.8673 289.4694 0012312 310.1509 49.8627 14.86122578194971 RS-44 1 44909U 19096E 23208.33036156 .00000015 00000-0 77856-5 0 9997 2 44909 82.5242 321.2722 0218530 93.1522 269.4606 12.79722198167297 BY70-2 1 45857U 20042B 23208.67189324 .00019328 00000-0 19072-2 0 9996 2 45857 97.9246 288.7505 0008883 222.5433 137.5098 14.91991021165575 UPMSat 2 1 46276U 20061E 23208.14359981 .00010692 00000-0 44217-3 0 9998 2 46276 97.3443 274.9044 0002090 140.3561 219.7829 15.24142366160377 AmicalSat 1 46287U 20061R 23208.15347517 .00014349 00000-0 64831-3 0 9990 2 46287 97.3976 273.9314 0000854 358.0384 2.0848 15.21059468159780 SALSAT 1 46495U 20068K 23208.59926128 .00005652 00000-0 36956-3 0 9991 2 46495 97.7711 157.0435 0014902 349.6947 10.3973 15.08117005155164 CAPE 3 1 47309U 21002A 23208.42908989 .00037586 00000-0 81951-3 0 9998 2 47309 60.6755 264.4572 0007820 285.7774 74.2460 15.43994379140496 AO-109 1 47311U 21002C 23208.43181238 .00027659 00000-0 66692-3 0 9997 2 47311 60.6797 263.5832 0005283 272.5333 87.5157 15.41129856140487 ExoCube 2 1 47319U 21002L 23207.86902305 .00030060 00000-0 74577-3 0 9998 2 47319 60.6776 268.0939 0006454 272.3629 87.6727 15.40219995140327 UVSQ-SAT 1 47438U 21006AB 23208.12238836 .00019187 00000-0 75584-3 0 9991 2 47438 97.3814 264.6814 0007776 303.0591 56.9900 15.25616330138732 YUSAT 1 1 47439U 21006AC 23208.14350783 .00024812 00000-0 89483-3 0 9994 2 47439 97.3823 265.6237 0007088 298.1228 61.9295 15.28494823138793 SOMP 2b 1 47445U 21006AJ 23208.59040781 .00014973 00000-0 60477-3 0 9993 2 47445 97.3783 264.3309 0007755 308.2622 51.7917 15.24833603138778 IDEASSat 1 47458U 21006AX 23208.58863813 .00014389 00000-0 59316-3 0 9996 2 47458 97.3879 265.1215 0007186 308.0482 52.0107 15.24160033138756 CubeSX-Sirius-HSE 1 47951U 21022V 23208.72851874 .00010036 00000-0 55137-3 0 9994 2 47951 97.4927 105.4351 0018200 188.6523 171.4398 15.14163371129163 CubeSX-HSE 1 47952U 21022W 23208.70000393 .00008853 00000-0 48598-3 0 9992 2 47952 97.4927 105.4580 0018136 187.5571 172.5390 15.14230078129160 KSU-Cubesat 1 47954U 21022Y 23208.66183327 .00011569 00000-0 61723-3 0 9991 2 47954 97.4930 105.8542 0017581 186.2649 173.8366 15.15178059128902 GRBAlpha 1 47959U 21022AD 23208.68442519 .00008979 00000-0 49174-3 0 9996 2 47959 97.4927 105.5323 0017976 188.2980 171.7957 15.14312422127988 Orbicraft-Zorkiy 1 47960U 21022AE 23208.68860265 .00009706 00000-0 52016-3 0 9998 2 47960 97.4958 106.0230 0017602 186.8480 173.2514 15.15065531128694 STECCO 1 47962U 21022AG 23208.72522849 .00019123 00000-0 84569-3 0 9990 2 47962 97.4929 108.8026 0012908 169.0914 191.0604 15.21660358128206 MO-110 1 47964U 21022AJ 23208.16057952 .00022034 00000-0 94840-3 0 9996 2 47964 97.4940 108.8969 0014977 168.1228 192.0365 15.22526697128150 FEES 1 48082U 21022AL 23208.19166395 .00044328 00000-0 15080-2 0 9991 2 48082 97.4924 110.6006 0011466 153.3893 206.7938 15.30235396127971 TUBIN 1 48900U 21059X 23208.64786537 .00009888 00000-0 45996-3 0 9998 2 48900 97.6042 342.5339 0009954 136.5301 223.6720 15.20118599115321 IT-SPINS 1 49017U 21013G 23208.48329781 .00034095 00000-0 71139-3 0 9990 2 49017 51.5899 240.7321 0006229 90.3653 269.8046 15.45199790115938 LEDSAT 1 49069U 21073D 23208.62122057 .00009205 00000-0 49503-3 0 9991 2 49069 97.4802 278.8253 0022830 343.7258 16.3238 15.14865479107025 CUTE 1 49263U 21088D 23208.14133177 .00012463 00000-0 78070-3 0 9996 2 49263 97.5414 273.2634 0019140 124.7772 235.5262 15.09350583100317 TeikyoSat 4 1 49396U 21102B 23208.42781240 .00002964 00000-0 22782-3 0 9995 2 49396 97.5095 259.1665 0013946 304.1930 55.7973 15.02400762 93819 Z-Sat 1 49399U 21102E 23208.70918155 .00003298 00000-0 23495-3 0 9999 2 49399 97.4810 260.5629 0020469 292.6060 67.3002 15.05109484 93985 KOSEN 1 1 49402U 21102H 23208.40289502 .00004656 00000-0 31416-3 0 9999 2 49402 97.4753 260.8480 0018805 281.0216 78.8896 15.06960514 94013 HO-113 1 50466U 21131B 23208.77827275 .00000621 00000-0 21573-3 0 9999 2 50466 98.5515 290.1979 0004667 34.2026 325.9461 14.38977918 83191 Tevel-3 1 50988U 22002E 23208.70639655 .00019821 00000-0 75524-3 0 9999 2 50988 97.4313 275.4337 0008809 96.8006 263.4235 15.26712795 84949 Tevel-8 1 50989U 22002F 23208.66140129 .00020441 00000-0 78044-3 0 9998 2 50989 97.4329 275.4524 0008769 96.2377 263.9861 15.26639736 84937 Tevel-5 1 50998U 22002Q 23208.62831013 .00021086 00000-0 78152-3 0 9999 2 50998 97.4306 275.7892 0009723 91.5064 268.7289 15.27607661 84968 Tevel-6 1 50999U 22002R 23208.75783369 .00021428 00000-0 79400-3 0 9991 2 50999 97.4305 275.9122 0009710 90.8591 269.3761 15.27612460 84986 Tevel-1 1 51013U 22002AF 23208.65193393 .00020368 00000-0 77722-3 0 9997 2 51013 97.4304 275.3159 0008684 96.7116 263.5111 15.26659259 84930 Grizu-263a 1 51025U 22002AT 23207.94326912 .00155486 00000-0 23930-2 0 9997 2 51025 97.4422 281.7585 0004750 108.0780 252.0991 15.53651485 85216 NO-116 1 51031U 22002AZ 23208.16455305 .00048468 00000-0 13901-2 0 9996 2 51031 97.4431 278.4077 0009108 90.9315 269.2972 15.35686239 85031 IRIS-A 1 51044U 22002BN 23208.43426252 .00010885 00000-0 50510-3 0 9999 2 51044 97.4324 273.2899 0009662 100.5926 259.6398 15.20170628 84771 Tevel-7 1 51062U 22002CG 23208.66185166 .00020598 00000-0 78587-3 0 9996 2 51062 97.4324 275.4250 0008709 95.8450 264.3782 15.26662619 84935 Tevel-4 1 51063U 22002CH 23208.66943689 .00020351 00000-0 77796-3 0 9997 2 51063 97.4321 275.4121 0008726 95.7616 264.4618 15.26599662 84938 Tevel-2 1 51069U 22002CP 23208.64255336 .00019815 00000-0 75492-3 0 9990 2 51069 97.4310 275.3401 0008740 96.9193 263.3041 15.26716649 84935 DELFI-PQ 1 51074U 22002CU 23208.15113884 .00052311 00000-0 13226-2 0 9997 2 51074 97.4563 281.0713 0009548 116.3909 243.8318 15.39569535 85148 SO-115 1 51080U 22002DA 23207.43650094 .00031282 00000-0 10546-2 0 9999 2 51080 97.4580 278.3092 0011555 122.0164 238.2201 15.30606721 84891 SO-114 1 51081U 22002DB 23208.13869381 .00031800 00000-0 10637-2 0 9996 2 51081 97.4577 278.9934 0011550 119.1798 241.0599 15.30856985 85009 OreSat0 1 52017U 22026K 23208.44625618 .00019222 00000-0 73810-3 0 9996 2 52017 97.5088 210.9955 0019080 304.7617 55.1824 15.26328615 75681 Planetum 1 1 52738U 22057G 23208.28439851 .00016629 00000-0 74324-3 0 9993 2 52738 97.5407 324.2669 0006811 199.6477 160.4497 15.21382441 64754 Foresail-1 1 52766U 22057AL 23208.61864655 .00011123 00000-0 51538-3 0 9991 2 52766 97.5530 325.4964 0012030 183.7492 176.3655 15.20197466 64824 SNUGLITE 2 1 52899U 22065F 23208.32906764 .00001379 00000-0 30040-3 0 9990 2 52899 98.0741 352.0674 0009290 91.8955 268.3309 14.59413280 56715 CTIM 1 52950U 22074G 23208.27794200 .00070269 00000-0 13539-2 0 9999 2 52950 44.9966 134.5623 0012755 127.6320 232.5729 15.46948012 59808 IO-117 1 53106U 22080B 23206.34031428 -.00000003 00000-0 00000-0 0 9999 2 53106 70.1615 306.4627 0008579 178.9907 181.0771 6.42556808 24202 AstroBioCubeSat 1 53107U 22080C 23025.30817895 -.00000003 00000-0 00000-0 0 9995 2 53107 70.1710 9.4734 0013545 210.3158 149.6718 6.42110537 12478 SelfieSat 1 53951U 22057BC 23208.59744424 .00019410 00000-0 81710-3 0 9998 2 53951 97.5456 325.3546 0008862 193.7041 166.3956 15.23376182 64833 FO-118 1 54684U 22167C 23208.77655366 .00012712 00000-0 68349-3 0 9991 2 54684 97.5667 346.1111 0013336 190.0469 170.0498 15.14937515 34828 SSS-2B 1 56184U 23054G 23208.64135319 .00013662 00000-0 57006-3 0 9994 2 56184 97.4060 103.0605 0008632 248.7462 111.2853 15.23752534 16330 CIRBE 1 56188U 23054L 23208.15200882 .00017842 00000-0 72797-3 0 9990 2 56188 97.4012 102.5791 0007377 242.4191 117.6297 15.24458402 16268 INSPIRE-Sat 7 1 56211U 23054AK 23208.17732989 .00019915 00000-0 76909-3 0 9999 2 56211 97.4031 102.8868 0012566 223.7159 136.3086 15.26225930 16282 RoseyCubesat 1 1 56212U 23054AL 23208.16297502 .00020767 00000-0 79393-3 0 9993 2 56212 97.4037 102.9136 0012836 222.9612 137.0625 15.26551457 16286 ARKSAT 1 1 56311U 98067VC 23208.16499257 .00086586 00000-0 94890-3 0 9990 2 56311 51.6367 126.0768 0003563 197.1602 162.9273 15.62510013 14604 AuroraSat 1 56312U 98067VD 23208.18358647 .00117710 00000-0 11742-2 0 9998 2 56312 51.6346 125.4440 0004261 187.2167 172.8768 15.64761936 14641 Ex-Alta 2 1 56313U 98067VE 23206.94905383 .00083870 00000-0 92509-3 0 9996 2 56313 51.6346 132.1987 0003738 193.1642 166.9255 15.62357034 14435 LightCube 1 56314U 98067VF 23208.77096996 .00101030 00000-0 10272-2 0 9996 2 56314 51.6344 122.6154 0005627 182.8184 177.2780 15.64344061 14750 NEUDOSE 1 56315U 98067VG 23207.99998289 .00061810 00000-0 77189-3 0 9998 2 56315 51.6360 127.9693 0005316 197.6549 162.4260 15.59242196 14567 YukonSat 1 56316U 98067VH 23208.14761158 .00074718 00000-0 86901-3 0 9993 2 56316 51.6348 126.7044 0005303 191.1808 168.9068 15.61026986 14617 URESAT-1 1 56992U 23084BU 23208.60216612 .00013785 00000-0 79019-3 0 9990 2 56992 97.5089 324.4601 0019203 81.3564 278.9841 15.12545429 6758 MRC-100 1 56993U 23084BV 23208.07326616 .00016987 00000-0 97269-3 0 9992 2 56993 97.5091 323.9427 0019098 83.0378 277.3024 15.12537519 6685 UmKA 1 (RS40S) 1 57172U 23091G 23208.76150612 .00005141 00000-0 37983-3 0 9994 2 57172 97.6619 259.1765 0018950 145.5675 214.6782 15.03522990 4531 CubeBel-2 (EU11S) 1 57175U 23091K 23208.77404817 .00005246 00000-0 39403-3 0 9992 2 57175 97.6596 259.1601 0017403 156.1563 204.0472 15.02915905 4533 /EX
